20041112,000004,805169,31.988625,-122.401108,3.7,16.241,32.899,41.924,1290.94,0.0,0.229, NaN, NaN, NaN,24.030,   NaN,17.79,1018.97,72.70,18.05,358.4,358.7,2.9,3.0,268.2,267.6,2.0,2.2,NaN, NaN,28.3,240.3,235.3,1100217606,1100217605,1,1.8,000004,000005,259.4,31.988545,-122.401157,NaN,NaN,NaN,16.424, NaN,NaN,NaN, NaN, NaN
20041112,000034,805199,31.988495,-122.401335,3.7,16.247,32.896,41.925,1282.00,0.0,0.233, NaN, NaN, NaN,24.026,   NaN,17.79,1018.95,72.69,18.08,358.2,358.5,2.8,3.0,266.5,266.0,2.0,2.2,NaN, NaN,27.2,218.0,234.4,1100217636,1100217635,1,1.6,000035,000035,258.7,31.988428,-122.401392,NaN,NaN,NaN,16.429, NaN,NaN,NaN, NaN, NaN
20041112,000105,805230,31.988355,-122.401548,3.7,16.267,32.891,41.939,1296.30,0.0,0.229, NaN, NaN, NaN,24.018,   NaN,17.76,1018.92,72.65,17.99,357.8,357.5,2.8,2.9,265.5,264.7,2.0,2.2,NaN, NaN,28.1,249.6,232.5,1100217667,1100217665,1,1.7,000065,000065,258.6,31.988288,-122.401587,NaN,NaN,NaN,16.449, NaN,NaN,NaN, NaN, NaN
20041112,000134,805260,31.988223,-122.401752,3.6,16.264,32.897,41.942,1269.11,0.0,0.235, NaN, NaN, NaN,24.023,   NaN,17.80,1018.91,72.62,17.91,355.5,355.6,2.7,2.9,262.7,262.2,2.0,2.1,NaN, NaN,28.4,208.2,236.8,1100217696,1100217695,1,1.6,000095,000095,258.8,31.988146,-122.401807,NaN,NaN,NaN,16.446, NaN,NaN,NaN, NaN, NaN
20041112,000205,805290,31.988096,-122.401960,3.6,16.311,32.896,41.984,1271.66,0.0,0.231, NaN, NaN, NaN,24.012,   NaN,17.79,1018.86,72.69,17.96,351.0,353.2,2.6,2.8,258.3,260.2,1.9,2.1,NaN, NaN,28.4,220.8,234.0,1100217726,1100217725,1,1.5,000125,000125,259.3,31.988021,-122.402013,NaN,NaN,NaN,16.492, NaN,NaN,NaN, NaN, NaN
20041112,000235,805321,31.987970,-122.402160,3.7,16.325,32.895,41.996,1269.52,0.0,0.238, NaN, NaN, NaN,24.008,   NaN,17.81,1018.85,72.81,17.99,349.8,352.5,2.6,2.8,256.0,258.8,1.9,2.1,NaN, NaN,27.4,253.4,231.5,1100217756,1100217755,1,1.6,000155,000155,259.6,31.987888,-122.402215,NaN,NaN,NaN,16.506, NaN,NaN,NaN, NaN, NaN
20041112,000304,805349,31.987841,-122.402352,3.7,16.332,32.894,42.001,1269.48,0.0,0.228, NaN, NaN, NaN,24.005,   NaN,17.82,1018.91,72.83,17.92,345.9,351.3,2.6,2.8,252.4,258.0,1.9,2.1,NaN, NaN,28.0,214.8,232.1,1100217786,1100217785,1,1.5,000185,000185,259.3,31.987768,-122.402412,NaN,NaN,NaN,16.513, NaN,NaN,NaN, NaN, NaN
20041112,000335,805380,31.987715,-122.402528,3.6,16.366,32.892,42.032,1260.23,0.0,0.229, NaN, NaN, NaN,23.996,   NaN,17.80,1018.85,72.81,17.96,345.0,350.5,2.6,2.8,251.2,256.7,1.9,2.1,NaN, NaN,28.8,236.7,228.0,1100217816,1100217815,1,1.5,000215,000215,259.3,31.987641,-122.402588,NaN,NaN,NaN,16.547, NaN,NaN,NaN, NaN, NaN
20041112,000405,805410,31.987603,-122.402687,3.7,16.350,32.893,42.018,1235.98,0.0,0.235, NaN, NaN, NaN,24.001,   NaN,17.80,1018.87,72.73,17.88,347.4,350.8,2.5,2.8,253.7,257.1,1.9,2.2,NaN, NaN,27.4,215.0,225.7,1100217847,1100217845,1,1.2,000246,000245,259.4,31.987516,-122.402745,NaN,NaN,NaN,16.531, NaN,NaN,NaN, NaN, NaN
20041112,000434,805440,31.987478,-122.402810,3.7,16.313,32.893,41.983,1250.01,0.0,0.233, NaN, NaN, NaN,24.009,   NaN,17.80,1018.92,72.78,17.78,348.0,351.3,2.5,2.7,255.3,258.3,2.0,2.2,NaN, NaN,28.1,219.4,221.2,1100217876,1100217875,1,1.3,000275,000275,259.2,31.987400,-122.402865,NaN,NaN,NaN,16.494, NaN,NaN,NaN, NaN, NaN
20041112,000505,805470,31.987376,-122.402930,3.7,16.313,32.893,41.983,1235.06,0.0,0.234, NaN, NaN, NaN,24.009,   NaN,17.82,1018.91,72.67,17.75,348.9,352.3,2.5,2.7,257.6,260.4,2.0,2.2,NaN, NaN,27.9,235.5,217.7,1100217907,1100217905,1,1.1,000306,000305,260.1,31.987286,-122.402980,NaN,NaN,NaN,16.494, NaN,NaN,NaN, NaN, NaN
20041112,000534,805499,31.987251,-122.403030,3.7,16.319,32.892,41.988,1218.78,0.0,0.234, NaN, NaN, NaN,24.007,   NaN,17.82,1018.90,72.67,17.78,349.8,353.2,2.5,2.6,258.8,261.6,2.0,2.2,NaN, NaN,28.4,206.3,219.1,1100217936,1100217935,1,1.2,000335,000335,259.9,31.987173,-122.403085,NaN,NaN,NaN,16.500, NaN,NaN,NaN, NaN, NaN
20041112,000605,805530,31.987133,-122.403137,3.7,16.326,32.888,41.989,1212.59,0.0,0.242, NaN, NaN, NaN,24.002,   NaN,17.83,1018.92,72.75,17.75,350.4,353.0,2.5,2.7,262.5,263.9,2.0,2.2,NaN, NaN,27.7,199.7,221.6,1100217967,1100217965,1,1.3,000365,000365,260.4,31.987063,-122.403198,NaN,NaN,NaN,16.507, NaN,NaN,NaN, NaN, NaN
20041112,000635,805560,31.987040,-122.403233,3.7,16.294,32.897,41.970,1210.47,0.0,0.244, NaN, NaN, NaN,24.016,   NaN,17.81,1018.93,72.89,17.78,350.7,353.5,2.5,2.7,262.6,264.1,2.1,2.3,NaN, NaN,29.0,212.3,218.5,1100217996,1100217995,1,1.1,000395,000395,259.8,31.986955,-122.403305,NaN,NaN,NaN,16.476, NaN,NaN,NaN, NaN, NaN
20041112,000705,805590,31.986923,-122.403355,3.7,16.290,32.884,41.952,1200.15,0.0,0.239, NaN, NaN, NaN,24.007,   NaN,17.82,1018.90,72.91,17.75,351.1,353.8,2.5,2.7,261.1,262.8,2.1,2.3,NaN, NaN,30.5,247.7,218.0,1100218027,1100218025,1,1.0,000426,000425,260.0,31.986846,-122.403402,NaN,NaN,NaN,16.472, NaN,NaN,NaN, NaN, NaN
20041112,000735,805620,31.986810,-122.403480,3.6,16.283,32.892,41.955,1192.78,0.0,0.233, NaN, NaN, NaN,24.015,   NaN,17.81,1018.92,72.93,17.78,350.7,352.9,2.6,2.8,260.6,262.1,2.1,2.3,NaN, NaN,28.0,194.5,230.5,1100218057,1100218055,1,1.3,000456,000455,259.7,31.986733,-122.403517,NaN,NaN,NaN,16.465, NaN,NaN,NaN, NaN, NaN
20041112,000805,805651,31.986720,-122.403603,3.7,16.292,32.891,41.962,1174.61,0.0,0.237, NaN, NaN, NaN,24.012,   NaN,17.80,1018.90,72.97,17.75,351.3,353.2,2.6,2.8,259.6,260.8,2.1,2.3,NaN, NaN,26.7,191.0,223.0,1100218087,1100218085,1,1.2,000486,000485,259.1,31.986618,-122.403662,NaN,NaN,NaN,16.474, NaN,NaN,NaN, NaN, NaN
20041112,000835,805681,31.986586,-122.403730,3.7,16.316,32.875,41.963,1189.77,0.0,0.233, NaN, NaN, NaN,23.994,   NaN,17.79,1018.88,72.91,17.75,351.5,354.0,2.7,2.8,259.2,261.1,2.2,2.4,NaN, NaN,26.7,300.2,219.0,1100218117,1100218115,1,1.4,000516,000515,259.8,31.986491,-122.403763,NaN,NaN,NaN,16.497, NaN,NaN,NaN, NaN, NaN
20041112,000905,805710,31.986468,-122.403873,3.6,16.326,32.890,41.991,1160.06,0.0,0.244, NaN, NaN, NaN,24.004,   NaN,17.79,1018.89,73.01,17.75,351.5,354.1,2.7,2.9,258.6,260.7,2.2,2.4,NaN, NaN,26.6,192.8,229.7,1100218147,1100218145,1,1.2,000546,000545,258.7,31.986385,-122.403917,NaN,NaN,NaN,16.507, NaN,NaN,NaN, NaN, NaN
20041112,000935,805740,31.986350,-122.404027,3.7,16.309,32.889,41.975,1153.42,0.0,0.241, NaN, NaN, NaN,24.007,   NaN,17.79,1018.91,72.91,17.78,350.4,353.0,2.8,3.0,257.4,259.5,2.2,2.4,NaN, NaN,20.6,207.8,232.7,1100218177,1100218175,1,1.3,000576,000575,259.0,31.986265,-122.404058,NaN,NaN,NaN,16.490, NaN,NaN,NaN, NaN, NaN
20041112,001006,805771,31.986230,-122.404220,3.7,16.303,32.890,41.972,1166.40,0.0,0.240, NaN, NaN, NaN,24.009,   NaN,17.79,1018.92,73.12,17.68,351.3,353.3,2.9,3.1,257.2,258.8,2.2,2.4,NaN, NaN,20.6,224.2,229.2,1100218208,1100218205,1,1.5,000607,000605,259.0,31.986145,-122.404233,NaN,NaN,NaN,16.485, NaN,NaN,NaN, NaN, NaN
20041112,001035,805800,31.986111,-122.404405,3.7,16.288,32.889,41.956,1172.22,0.0,0.239, NaN, NaN, NaN,24.011,   NaN,17.79,1018.93,73.18,17.72,351.0,352.2,2.9,3.2,256.6,257.1,2.2,2.4,NaN, NaN,18.8,317.1,226.9,1100218237,1100218235,1,1.7,000636,000635,258.6,31.986021,-122.404425,NaN,NaN,NaN,16.470, NaN,NaN,NaN, NaN, NaN
20041112,001106,805831,31.985981,-122.404605,3.7,16.294,32.887,41.958,1139.78,0.0,0.234, NaN, NaN, NaN,24.008,   NaN,17.74,1018.88,73.09,17.72,349.7,351.2,2.9,3.1,254.1,255.2,2.2,2.4,NaN, NaN,19.6,211.5,234.3,1100218267,1100218265,1,1.5,000666,000665,259.1,31.985906,-122.404618,NaN,NaN,NaN,16.476, NaN,NaN,NaN, NaN, NaN
20041112,001135,805860,31.985856,-122.404798,3.7,16.285,32.891,41.956,1148.28,0.0,0.249, NaN, NaN, NaN,24.014,   NaN,17.77,1018.89,73.37,17.72,348.3,349.6,2.9,3.1,253.3,254.0,2.1,2.4,NaN, NaN,19.3,273.8,228.5,1100218297,1100218295,1,1.5,000696,000695,259.0,31.985776,-122.404805,NaN,NaN,NaN,16.467, NaN,NaN,NaN, NaN, NaN
20041112,001206,805892,31.985726,-122.404980,3.6,16.264,32.889,41.932,1122.95,0.0,0.236, NaN, NaN, NaN,24.017,   NaN,17.75,1018.86,73.37,17.72,347.6,350.0,2.9,3.1,251.7,254.2,2.1,2.3,NaN, NaN,20.3,233.3,235.3,1100218327,1100218325,1,1.4,000726,000725,258.4,31.985656,-122.405007,NaN,NaN,NaN,16.446, NaN,NaN,NaN, NaN, NaN
20041112,001235,805920,31.985618,-122.405147,3.7,16.251,32.887,41.919,1112.52,0.0,0.241, NaN, NaN, NaN,24.019,   NaN,17.70,1018.87,73.28,17.68,348.5,351.2,2.9,3.1,252.0,254.9,2.2,2.4,NaN, NaN,20.4,224.6,230.6,1100218357,1100218355,1,1.3,000756,000755,257.8,31.985540,-122.405172,NaN,NaN,NaN,16.433, NaN,NaN,NaN, NaN, NaN
20041112,001306,805951,31.985500,-122.405312,3.7,16.271,32.886,41.937,1112.27,0.0,0.237, NaN, NaN, NaN,24.013,   NaN,17.78,1018.91,73.45,17.68,350.8,353.6,2.8,3.1,255.4,258.2,2.2,2.4,NaN, NaN,19.6,215.1,230.1,1100218388,1100218385,1,1.2,000787,000785,258.6,31.985425,-122.405347,NaN,NaN,NaN,16.453, NaN,NaN,NaN, NaN, NaN
20041112,001336,805981,31.985391,-122.405450,3.7,16.315,32.883,41.973,1106.25,0.0,0.235, NaN, NaN, NaN,24.001,   NaN,17.78,1018.88,73.50,17.65,350.9,353.7,2.8,3.0,256.5,259.1,2.2,2.4,NaN, NaN,20.4,248.4,224.7,1100218418,1100218415,1,1.2,000817,000815,258.4,31.985305,-122.405503,NaN,NaN,NaN,16.496, NaN,NaN,NaN, NaN, NaN
20041112,001406,806011,31.985271,-122.405590,3.7,16.341,32.881,41.996,1088.58,0.0,0.238, NaN, NaN, NaN,23.993,   NaN,17.79,1018.87,73.67,17.68,349.9,352.5,2.7,2.9,256.0,258.2,2.1,2.4,NaN, NaN,20.9,222.5,226.6,1100218448,1100218445,1,1.1,000847,000845,259.1,31.985200,-122.405632,NaN,NaN,NaN,16.522, NaN,NaN,NaN, NaN, NaN
20041112,001436,806041,31.985171,-122.405723,3.7,16.327,32.883,41.986,1076.68,0.0,0.239, NaN, NaN, NaN,23.998,   NaN,17.79,1018.83,73.69,17.65,348.9,351.6,2.7,2.9,254.8,257.1,2.1,2.3,NaN, NaN,20.0,226.5,228.9,1100218477,1100218475,1,1.2,000876,000875,258.8,31.985080,-122.405768,NaN,NaN,NaN,16.508, NaN,NaN,NaN, NaN, NaN
20041112,001505,806070,31.985056,-122.405892,3.7,16.336,32.881,41.991,1076.63,0.0,0.239, NaN, NaN, NaN,23.995,   NaN,17.79,1018.88,73.68,17.68,349.8,351.8,2.7,2.9,255.8,257.2,2.1,2.3,NaN, NaN,20.4,206.8,233.8,1100218507,1100218505,1,1.3,000906,000905,258.8,31.984968,-122.405943,NaN,NaN,NaN,16.517, NaN,NaN,NaN, NaN, NaN
20041112,001536,806102,31.984950,-122.406070,3.7,16.339,32.881,41.993,1064.60,0.0,0.240, NaN, NaN, NaN,23.994,   NaN,17.74,1018.84,73.63,17.65,349.7,351.6,2.7,3.0,255.6,256.6,2.1,2.4,NaN, NaN,19.1,247.7,229.8,1100218537,1100218535,1,1.4,000936,000935,258.3,31.984855,-122.406088,NaN,NaN,NaN,16.520, NaN,NaN,NaN, NaN, NaN
20041112,001606,806131,31.984813,-122.406258,3.7,16.334,32.882,41.989,1062.95,0.0,0.240, NaN, NaN, NaN,23.996,   NaN,17.76,1018.85,73.66,17.68,350.5,352.6,2.8,3.0,256.0,257.5,2.1,2.4,NaN, NaN,20.4,239.6,235.9,1100218568,1100218565,1,1.4,000967,000965,258.6,31.984733,-122.406280,NaN,NaN,NaN,16.515, NaN,NaN,NaN, NaN, NaN
20041112,001636,806161,31.984701,-122.406433,3.7,16.281,32.886,41.946,1056.47,0.0,0.241, NaN, NaN, NaN,24.011,   NaN,17.79,1018.85,73.96,17.72,351.4,353.3,2.8,3.0,256.3,258.0,2.1,2.3,NaN, NaN,20.5,220.9,234.6,1100218597,1100218595,1,1.3,000996,000995,258.8,31.984631,-122.406443,NaN,NaN,NaN,16.463, NaN,NaN,NaN, NaN, NaN
20041112,001706,806191,31.984593,-122.406607,3.7,16.300,32.880,41.956,1051.66,0.0,0.238, NaN, NaN, NaN,24.002,   NaN,17.79,1018.90,73.64,17.81,351.5,353.7,2.7,2.9,257.4,259.2,2.1,2.3,NaN, NaN,19.1,265.5,228.4,1100218628,1100218625,1,1.5,001027,001025,259.6,31.984506,-122.406628,NaN,NaN,NaN,16.482, NaN,NaN,NaN, NaN, NaN
20041112,001736,806221,31.984471,-122.406753,3.7,16.324,32.880,41.978,1032.06,0.0,0.239, NaN, NaN, NaN,23.996,   NaN,17.79,1018.88,73.64,17.91,350.9,352.8,2.7,2.9,257.4,258.8,2.1,2.3,NaN, NaN,20.0,204.9,231.7,1100218658,1100218655,1,1.2,001057,001055,259.0,31.984408,-122.406768,NaN,NaN,NaN,16.505, NaN,NaN,NaN, NaN, NaN
20041112,001806,806252,31.984378,-122.406888,3.7,16.353,32.876,42.000,1015.45,0.0,0.238, NaN, NaN, NaN,23.986,   NaN,17.79,1018.86,73.96,17.84,351.0,352.8,2.7,2.9,255.9,257.6,2.2,2.3,NaN, NaN,20.2,207.5,221.4,1100218688,1100218685,1,1.2,001087,001085,257.4,31.984291,-122.406920,NaN,NaN,NaN,16.534, NaN,NaN,NaN, NaN, NaN
20041112,001836,806281,31.984248,-122.407015,3.7,16.367,32.875,42.012,1011.67,0.0,0.242, NaN, NaN, NaN,23.982,   NaN,17.78,1018.91,74.07,17.92,351.4,352.4,2.7,2.9,257.0,257.5,2.2,2.4,NaN, NaN,20.6,218.6,226.9,1100218718,1100218715,1,1.2,001117,001115,257.4,31.984181,-122.407045,NaN,NaN,NaN,16.548, NaN,NaN,NaN, NaN, NaN
20041112,001906,806311,31.984163,-122.407127,3.7,16.338,32.883,41.995,1011.30,0.0,0.250, NaN, NaN, NaN,23.996,   NaN,17.74,1018.91,74.26,17.96,353.2,354.1,2.7,2.9,259.4,259.6,2.2,2.4,NaN, NaN,18.9,259.3,218.7,1100218748,1100218745,1,1.1,001146,001145,257.4,31.984071,-122.407150,NaN,NaN,NaN,16.519, NaN,NaN,NaN, NaN, NaN
20041112,001935,806341,31.984050,-122.407235,3.7,16.312,32.879,41.965,998.47,0.0,0.245, NaN, NaN, NaN,23.998,   NaN,17.70,1018.91,74.19,17.99,354.4,355.0,2.7,2.9,260.4,260.4,2.3,2.5,NaN, NaN,19.5,255.8,219.4,1100218778,1100218775,1,1.0,001176,001175,256.2,31.983965,-122.407263,NaN,NaN,NaN,16.493, NaN,NaN,NaN, NaN, NaN
20041112,002006,806371,31.983926,-122.407328,3.7,16.344,32.873,41.988,976.77,0.0,0.237, NaN, NaN, NaN,23.986,   NaN,17.69,1018.87,74.37,17.92,354.0,355.4,2.7,2.9,256.0,256.9,2.2,2.4,NaN, NaN,20.0,213.0,209.3,1100218808,1100218805,1,1.0,001207,001205,245.8,31.983850,-122.407352,NaN,NaN,NaN,16.525, NaN,NaN,NaN, NaN, NaN
20041112,002035,806400,31.983795,-122.407410,3.7,16.375,32.871,42.015,484.08,0.0,0.236, NaN, NaN, NaN,23.978,   NaN,17.69,1018.85,74.36,17.96,0.3,1.0,2.6,2.8,256.8,256.9,2.2,2.3,NaN, NaN,21.0,182.9,207.0,1100218838,1100218835,1,1.0,001236,001235,240.1,31.983721,-122.407423,NaN,NaN,NaN,16.555, NaN,NaN,NaN, NaN, NaN
20041112,002106,806432,31.983673,-122.407490,3.7,16.379,32.870,42.016,341.02,0.0,0.229, NaN, NaN, NaN,23.975,   NaN,17.67,1018.87,74.31,17.99,12.0,10.5,2.6,2.7,264.9,262.6,2.3,2.4,NaN, NaN,19.5,256.8,197.9,1100218868,1100218865,1,1.2,001267,001265,238.0,31.983573,-122.407478,NaN,NaN,NaN,16.559, NaN,NaN,NaN, NaN, NaN
20041112,002136,806461,31.983515,-122.407540,3.6,16.419,32.867,42.051,358.98,0.0,0.232, NaN, NaN, NaN,23.964,   NaN,17.66,1018.87,74.25,17.92,19.1,15.5,2.6,2.7,270.2,265.8,2.4,2.5,NaN, NaN,24.6,230.5,200.8,1100218899,1100218895,1,1.1,001297,001295,239.9,31.983433,-122.407533,NaN,NaN,NaN,16.599, NaN,NaN,NaN, NaN, NaN
20041112,002207,806493,31.983363,-122.407597,3.7,16.451,32.863,42.075,316.32,0.0,0.231, NaN, NaN, NaN,23.954,   NaN,17.69,1018.88,74.60,17.84,19.0,15.2,2.7,2.8,271.0,266.4,2.5,2.5,NaN, NaN,24.1,210.8,201.9,1100218929,1100218925,1,1.0,001328,001330,238.5,31.983265,-122.407593,NaN,NaN,NaN,16.630, NaN,NaN,NaN, NaN, NaN
20041112,002236,806521,31.983215,-122.407657,3.7,16.441,32.862,42.065,308.23,0.0,0.236, NaN, NaN, NaN,23.956,   NaN,17.67,1018.88,75.24,17.88,21.6,18.0,2.7,2.9,273.1,269.0,2.6,2.6,NaN, NaN,24.1,206.6,197.0,1100218959,1100218955,1,1.1,001358,001355,236.3,31.983150,-122.407637,NaN,NaN,NaN,16.620, NaN,NaN,NaN, NaN, NaN
20041112,002307,806552,31.982963,-122.407892,3.7,16.373,32.872,42.013,320.80,0.0,0.240, NaN, NaN, NaN,23.979,   NaN,17.64,1018.90,75.18,17.84,23.9,19.0,3.0,3.2,277.4,270.9,2.6,2.7,NaN, NaN,24.0,234.4,224.0,1100218989,1100218985,1,2.4,001388,001390,239.4,31.982868,-122.407905,NaN,NaN,NaN,16.553, NaN,NaN,NaN, NaN, NaN
20041112,002337,806582,31.982658,-122.408313,3.7,16.305,32.877,41.958,314.06,0.0,0.239, NaN, NaN, NaN,23.999,   NaN,17.60,1018.90,75.32,17.72,22.9,17.2,3.5,3.7,280.4,271.6,2.5,2.6,NaN, NaN,23.9,233.6,227.3,1100219018,1100219015,1,3.7,001417,001415,239.1,31.982595,-122.408252,NaN,NaN,NaN,16.487, NaN,NaN,NaN, NaN, NaN
20041112,002407,806612,31.982238,-122.408898,3.7,16.378,32.877,42.023,302.14,0.0,0.236, NaN, NaN, NaN,23.981,   NaN,17.52,1018.84,75.30,17.62,19.5,14.3,4.0,4.2,281.9,271.9,2.5,2.6,NaN, NaN,25.1,233.9,233.7,1100219049,1100219045,1,4.6,001448,001445,238.7,31.982218,-122.408810,NaN,NaN,NaN,16.558, NaN,NaN,NaN, NaN, NaN
20041112,002437,806642,31.981793,-122.409623,3.7,16.417,32.880,42.065,362.32,0.0,0.234, NaN, NaN, NaN,23.975,   NaN,17.47,1018.91,75.39,17.57,18.9,13.0,4.5,4.7,284.9,272.6,2.5,2.5,NaN, NaN,24.1,232.6,236.0,1100219080,1100219080,1,5.7,001478,001480,240.6,31.981681,-122.409647,NaN,NaN,NaN,16.597, NaN,NaN,NaN, NaN, NaN
20041112,002508,806673,31.981316,-122.410468,3.7,16.414,32.880,42.062,624.33,0.0,0.235, NaN, NaN, NaN,23.976,   NaN,17.45,1018.90,75.25,17.54,18.2,12.2,4.9,5.2,287.0,273.4,2.5,2.5,NaN, NaN,24.6,238.7,239.9,1100219110,1100219110,1,6.4,001508,001510,243.0,31.981198,-122.410480,NaN,NaN,NaN,16.594, NaN,NaN,NaN, NaN, NaN
20041112,002537,806702,31.980831,-122.411388,3.7,16.406,32.879,42.054,709.11,0.0,0.236, NaN, NaN, NaN,23.977,   NaN,17.45,1018.92,75.27,17.41,16.0,10.4,5.3,5.5,286.3,272.4,2.5,2.5,NaN, NaN,25.0,250.8,241.2,1100219139,1100219140,1,6.8,001538,001540,244.2,31.980716,-122.411412,NaN,NaN,NaN,16.586, NaN,NaN,NaN, NaN, NaN
20041112,002608,806734,31.980330,-122.412425,3.6,16.398,32.878,42.045,725.55,0.0,0.238, NaN, NaN, NaN,23.978,   NaN,17.44,1018.88,75.64,17.38,14.1,8.9,5.5,5.8,286.2,271.7,2.4,2.5,NaN, NaN,24.7,241.9,240.8,1100219169,1100219170,1,7.5,001568,001570,244.5,31.980218,-122.412465,NaN,NaN,NaN,16.578, NaN,NaN,NaN, NaN, NaN
20041112,002637,806762,31.979801,-122.413557,3.7,16.399,32.883,42.052,769.21,0.0,0.240, NaN, NaN, NaN,23.982,   NaN,17.43,1018.92,75.65,17.38,13.3,7.6,5.7,6.0,287.9,271.9,2.3,2.4,NaN, NaN,25.2,247.0,241.2,1100219199,1100219200,1,8.0,001598,001600,246.0,31.979688,-122.413608,NaN,NaN,NaN,16.579, NaN,NaN,NaN, NaN, NaN
20041112,002707,806792,31.979273,-122.414795,3.8,16.395,32.883,42.048,838.91,0.0,0.239, NaN, NaN, NaN,23.983,   NaN,17.45,1018.91,76.27,17.38,12.2,6.9,5.9,6.2,288.4,271.5,2.2,2.3,NaN, NaN,24.3,242.9,242.9,1100219229,1100219225,1,8.6,001628,001630,246.7,31.979161,-122.414842,NaN,NaN,NaN,16.575, NaN,NaN,NaN, NaN, NaN
20041112,002737,806823,31.978705,-122.416132,3.7,16.396,32.883,42.048,816.42,0.0,0.253, NaN, NaN, NaN,23.982,   NaN,17.38,1018.87,75.81,17.32,10.7,5.9,6.2,6.5,287.4,270.7,2.1,2.2,NaN, NaN,25.3,243.9,243.3,1100219260,1100219260,1,9.3,001658,001660,247.3,31.978591,-122.416175,NaN,NaN,NaN,16.576, NaN,NaN,NaN, NaN, NaN
20041112,002808,806853,31.978120,-122.417591,3.7,16.388,32.883,42.041,809.02,0.0,0.238, NaN, NaN, NaN,23.985,   NaN,17.35,1018.86,75.94,17.24,9.6,5.4,6.5,6.8,286.2,270.5,2.1,2.2,NaN, NaN,26.2,238.2,245.2,1100219290,1100219290,1,9.6,001689,001690,246.9,31.978025,-122.417588,NaN,NaN,NaN,16.568, NaN,NaN,NaN, NaN, NaN
20041112,002837,806882,31.977565,-122.418996,3.7,16.373,32.883,42.026,794.54,0.0,0.240, NaN, NaN, NaN,23.988,   NaN,17.35,1018.85,75.78,17.24,9.8,5.3,6.7,7.0,287.5,270.7,2.1,2.2,NaN, NaN,27.4,237.5,245.8,1100219319,1100219320,1,9.9,001718,001720,246.7,31.977451,-122.419040,NaN,NaN,NaN,16.553, NaN,NaN,NaN, NaN, NaN
20041112,002907,806912,31.976951,-122.420468,3.7,16.370,32.882,42.022,691.82,0.0,0.237, NaN, NaN, NaN,23.988,   NaN,17.37,1018.87,75.90,17.24,10.2,5.3,6.7,7.1,288.4,270.1,2.1,2.1,NaN, NaN,27.1,238.4,242.8,1100219349,1100219345,1,10.2,001748,001745,245.1,31.976938,-122.420261,NaN,NaN,NaN,16.550, NaN,NaN,NaN, NaN, NaN
20041112,002938,806943,31.976275,-122.421985,3.7,16.371,32.880,42.022,466.67,0.0,0.233, NaN, NaN, NaN,23.986,   NaN,17.35,1018.86,75.76,17.24,11.5,6.1,6.9,7.2,291.9,271.6,2.1,2.1,NaN, NaN,26.7,247.2,242.5,1100219380,1100219380,1,10.6,001778,001780,243.6,31.976160,-122.422025,NaN,NaN,NaN,16.551, NaN,NaN,NaN, NaN, NaN
20041112,003007,806972,31.975550,-122.423508,3.6,16.388,32.878,42.035,299.91,0.0,0.231, NaN, NaN, NaN,23.980,   NaN,17.35,1018.86,75.90,17.24,12.6,6.9,7.0,7.3,294.7,273.4,2.2,2.1,NaN, NaN,27.1,240.7,238.9,1100219409,1100219405,1,10.7,001808,001805,241.1,31.975545,-122.423291,NaN,NaN,NaN,16.568, NaN,NaN,NaN, NaN, NaN
20041112,003037,807003,31.974761,-122.425031,3.7,16.407,32.876,42.050,274.93,0.0,0.231, NaN, NaN, NaN,23.974,   NaN,17.35,1018.82,75.83,17.24,12.3,7.0,7.1,7.4,294.0,273.6,2.2,2.1,NaN, NaN,27.4,241.6,238.1,1100219439,1100219440,1,10.9,001838,001840,240.6,31.974648,-122.425071,NaN,NaN,NaN,16.587, NaN,NaN,NaN, NaN, NaN
20041112,003107,807032,31.973960,-122.426560,3.7,16.437,32.874,42.075,266.02,0.0,0.234, NaN, NaN, NaN,23.966,   NaN,17.36,1018.79,76.14,17.24,13.0,7.6,7.1,7.4,294.5,274.2,2.2,2.1,NaN, NaN,28.1,230.6,237.8,1100219469,1100219465,1,11.0,001868,001870,239.5,31.973850,-122.426591,NaN,NaN,NaN,16.616, NaN,NaN,NaN, NaN, NaN
20041112,003137,807062,31.973143,-122.428071,3.7,16.446,32.873,42.081,262.55,0.0,0.226, NaN, NaN, NaN,23.963,   NaN,17.35,1018.77,76.14,17.28,13.9,8.0,7.1,7.4,296.5,275.3,2.2,2.1,NaN, NaN,27.5,230.2,237.8,1100219500,1100219500,1,10.9,001898,001900,239.0,31.973030,-122.428103,NaN,NaN,NaN,16.625, NaN,NaN,NaN, NaN, NaN
20041112,003207,807092,31.972296,-122.429573,3.7,16.466,32.868,42.096,260.79,0.0,0.229, NaN, NaN, NaN,23.954,   NaN,17.32,1018.80,76.08,17.24,13.4,7.6,7.0,7.4,296.9,274.7,2.2,2.0,NaN, NaN,26.8,238.7,236.7,1100219529,1100219525,1,11.0,001928,001930,238.4,31.972191,-122.429606,NaN,NaN,NaN,16.645, NaN,NaN,NaN, NaN, NaN
20041112,003238,807123,31.971435,-122.431121,3.7,16.498,32.864,42.120,258.14,0.0,0.227, NaN, NaN, NaN,23.944,   NaN,17.32,1018.79,75.52,17.20,13.9,8.0,7.1,7.5,298.2,276.6,2.3,2.1,NaN, NaN,27.6,230.6,236.9,1100219559,1100219560,1,11.4,001958,001960,239.7,31.971326,-122.431165,NaN,NaN,NaN,16.676, NaN,NaN,NaN, NaN, NaN
20041112,003307,807153,31.970585,-122.432735,3.7,16.523,32.860,42.139,257.88,0.0,0.223, NaN, NaN, NaN,23.935,   NaN,17.35,1018.77,75.92,17.20,14.3,8.5,7.2,7.5,300.4,279.0,2.3,2.1,NaN, NaN,26.9,240.9,237.5,1100219589,1100219585,1,11.6,001988,001990,240.9,31.970471,-122.432773,NaN,NaN,NaN,16.701, NaN,NaN,NaN, NaN, NaN
20041112,003338,807183,31.969731,-122.434390,3.7,16.554,32.855,42.161,257.31,0.0,0.216, NaN, NaN, NaN,23.924,   NaN,17.33,1018.82,75.79,17.14,14.5,8.8,7.3,7.7,303.2,281.6,2.3,2.1,NaN, NaN,26.6,241.0,239.0,1100219620,1100219620,1,11.9,002018,002020,241.9,31.969620,-122.434435,NaN,NaN,NaN,16.731, NaN,NaN,NaN, NaN, NaN
20041112,003407,807212,31.968901,-122.436121,3.7,16.587,32.857,42.194,262.93,0.0,0.218, NaN, NaN, NaN,23.918,   NaN,17.39,1018.87,75.88,17.20,14.6,8.6,7.5,7.9,304.3,282.4,2.4,2.2,NaN, NaN,27.0,240.9,240.3,1100219649,1100219645,1,12.3,002048,002050,242.7,31.968785,-122.436175,NaN,NaN,NaN,16.764, NaN,NaN,NaN, NaN, NaN
20041112,003438,807244,31.968056,-122.437876,3.7,16.604,32.857,42.210,288.25,0.0,0.213, NaN, NaN, NaN,23.915,   NaN,17.32,1018.87,75.35,17.17,15.1,9.2,7.7,8.1,305.2,284.4,2.5,2.3,NaN, NaN,26.6,242.6,241.3,1100219680,1100219680,1,12.4,002078,002080,243.8,31.967941,-122.437923,NaN,NaN,NaN,16.781, NaN,NaN,NaN, NaN, NaN
20041112,003507,807272,31.967245,-122.439668,3.7,16.602,32.853,42.204,308.39,0.0,0.209, NaN, NaN, NaN,23.911,   NaN,17.35,1018.90,75.78,17.20,15.4,9.2,7.8,8.2,306.0,284.7,2.6,2.3,NaN, NaN,27.0,238.1,242.5,1100219709,1100219705,1,12.4,002108,002105,243.9,31.967260,-122.439401,NaN,NaN,NaN,16.779, NaN,NaN,NaN, NaN, NaN
20041112,003538,807303,31.966440,-122.441468,3.7,16.598,32.843,42.189,287.43,0.0,0.203, NaN, NaN, NaN,23.905,   NaN,17.35,1018.93,75.65,17.17,15.9,9.5,7.9,8.2,307.9,286.5,2.7,2.4,NaN, NaN,26.3,244.3,242.1,1100219739,1100219735,1,12.4,002138,002140,244.5,31.966318,-122.441498,NaN,NaN,NaN,16.775, NaN,NaN,NaN, NaN, NaN
20041112,003608,807333,31.965601,-122.443311,3.7,16.590,32.846,42.185,279.49,0.0,0.198, NaN, NaN, NaN,23.910,   NaN,17.39,1018.92,75.89,17.27,16.2,9.9,7.9,8.3,308.6,287.9,2.7,2.4,NaN, NaN,26.4,239.6,242.2,1100219770,1100219770,1,12.4,002169,002170,243.5,31.965498,-122.443281,NaN,NaN,NaN,16.767, NaN,NaN,NaN, NaN, NaN
20041112,003637,807363,31.964796,-122.445028,3.7,16.604,32.845,42.197,241.53,0.0,0.197, NaN, NaN, NaN,23.905,   NaN,17.39,1018.92,76.00,17.32,16.5,10.0,7.9,8.2,309.2,288.4,2.7,2.4,NaN, NaN,27.0,240.1,240.8,1100219800,1100219800,1,12.3,002198,002200,242.3,31.964668,-122.445061,NaN,NaN,NaN,16.781, NaN,NaN,NaN, NaN, NaN